Regional Weather Roundup
Issued by NWS

Home | Current Version | Previous Version | Text Only | Print | Product List | Glossary On
Versions: 1 2 3 4 5 6 7 8 9 10 11 12 13 14 15 16 17 18 19 20 21 22 23 24 25 26 27 28 29 30 31 32 33 34 35 36 37 38 39 40 41 42 43 44 45 46 47 48 49 50
000
ASUS44 KBMX 240710
RWRAL

ALABAMA REGIONAL WEATHER ROUNDUP
NATIONAL WEATHER SERVICE BIRMINGHAM AL
100 AM CST WED JAN 24 2018

NOTE: "FAIR" INDICATES FEW OR NO CLOUDS BELOW 12,000 FEET
WITH NO SIGNIFICANT WEATHER AND/OR OBSTRUCTIONS TO VISIBILITY.

THE REMARK "TC" DENOTES TEMPERATURE IN DEGREES CELSIUS.

ALZ001>011-014-016>018-020-240800-
NORTH ALABAMA

CITY           SKY/WX    TMP DP  RH WIND       PRES   REMARKS
MUSCLE SHOALS  FAIR      32  26  78 NW3       30.28S
HUNTSVILLE     FAIR      35  29  78 NW3       30.25F
DECATUR        FAIR      32  27  81 NW5       30.27S WCI  27
HALEYVILLE     FAIR      27  24  89 CALM      30.28S
GADSDEN        FAIR      32  27  81 CALM      30.26S
$$

ALZ012-013-022-023-030>036-040>044-240800-
WEST CENTRAL ALABAMA

CITY           SKY/WX    TMP DP  RH WIND       PRES   REMARKS
TUSCALOOSA     FAIR      37  30  75 N7        30.29S WCI  32
DEMOPOLIS        N/A     40  31  68 N6        30.28S
$$

ALZ015-024>026-033>036-041>044-240800-
CENTRAL ALABAMA

CITY           SKY/WX    TMP DP  RH WIND       PRES   REMARKS
BIRMINGHAM     FAIR      35  28  75 N3        30.27F
MONTGOMERY     FAIR      39  30  70 NW6       30.24S WCI  35
SHELBY CO ARPT FAIR      38  30  73 N7        30.25F WCI  33
MAXWELL AFB    FAIR      53  43  69 N9        30.22S
GREENVILLE     FAIR      42  31  64 N10       30.21S
SELMA          FAIR      39  32  75 N6        30.25R WCI  35
PRATTVILLE     FAIR      40  32  74 N6        30.23F
BESSEMER       FAIR      36  28  73 N8        30.25F WCI  30
TALLADEGA      FAIR      36  29  75 CALM      30.26S
PELL CITY      SUNNY     30  28  93 CALM      30.26F
MARION         FAIR      38  31  76 NW9       30.25S WCI  31
SYLACAUGA      FAIR      39  32  77 N5        30.24F
$$

ALZ019-021-028-029-037-038-045>048-240800-
EAST CENTRAL ALABAMA

CITY           SKY/WX    TMP DP  RH WIND       PRES   REMARKS
ANNISTON       FAIR      38  28  67 N5        30.24S WCI  34
ALEXANDER CITY FAIR      38  32  81 N8        30.22S WCI  32
AUBURN         FAIR      38  31  76 N10       30.20F WCI  31
$$

ALZ051>064-240800-
SOUTHWEST ALABAMA

CITY           SKY/WX    TMP DP  RH WIND       PRES   REMARKS
MOBILE         FAIR      47  32  56 N12       30.25R
BROOKLEY FIELD FAIR      50  34  54 N13       30.25R
EVERGREEN      FAIR      42  32  67 N6        30.23S
$$

ALZ049-050-065>069-240800-
SOUTHEAST ALABAMA

CITY           SKY/WX    TMP DP  RH WIND       PRES   REMARKS
DOTHAN         FAIR      44  34  67 MISG      30.22S
OZARK          FAIR      41  32  70 NW7       30.19S
TROY           FAIR      34  31  88 N5        30.21S WCI  30
EUFAULA        FAIR      43  33  68 VRB3      30.19R
$$



USA.gov is the U.S. government's official web portal to all federal, state and local government web resources and services.